• In Hungary
  • List of Countries
  • For 7 days
  • Water Temperature
  • Satellite Maps
  • Weather Map
  • News
  • Weather Widgets
  • user-avatar
    Login

    Hourly Weather Ahmadabad

    Today, 19 July, Thursday

    Time Temperature Precipitation Wind Pressure Humidity
    00:00 +32°C° 0 mm 4 mps 746 mmHg 78%
    01:00 +30°C° 0 mm 4 mps 746 mmHg 79%
    02:00 +30°C° 0 mm 4 mps 746 mmHg 80%
    03:00 +30°C° 0 mm 4 mps 745 mmHg 81%
    04:00 +30°C° 0 mm 4 mps 745 mmHg 82%
    05:00 +29°C° 0 mm 3 mps 745 mmHg 85%
    06:00 +30°C° 0 mm 4 mps 745 mmHg 83%
    07:00 +30°C° 0 mm 4 mps 746 mmHg 82%
    08:00 +30°C° 0 mm 4 mps 746 mmHg 81%
    09:00 +32°C° 0.1 mm 4 mps 746 mmHg 78%
    10:00 +32°C° 0.1 mm 4 mps 746 mmHg 76%
    11:00 +33°C° 0 mm 3 mps 746 mmHg 72%
    12:00 +34°C° 0.1 mm 3 mps 746 mmHg 68%
    13:00 +35°C° 0.1 mm 3 mps 745 mmHg 64%
    14:00 +36°C° 0.1 mm 3 mps 745 mmHg 60%
    15:00 +35°C° 0.9 mm 4 mps 745 mmHg 62%
    16:00 +35°C° 0.9 mm 4 mps 744 mmHg 63%
    17:00 +35°C° 0.9 mm 5 mps 744 mmHg 65%
    18:00 +34°C° 0.7 mm 5 mps 744 mmHg 68%
    19:00 +33°C° 0.7 mm 5 mps 744 mmHg 71%
    20:00 +33°C° 0.7 mm 5 mps 745 mmHg 74%
    21:00 +32°C° 0.6 mm 5 mps 745 mmHg 75%
    22:00 +32°C° 0.6 mm 5 mps 745 mmHg 76%
    23:00 +32°C° 0.6 mm 5 mps 745 mmHg 77%

    Tomorrow, 20 July, Friday

    Time Temperature Precipitation Wind Pressure Humidity
    00:00 +30°C° 0.3 mm 5 mps 745 mmHg 79%
    01:00 +30°C° 0.3 mm 5 mps 745 mmHg 80%
    02:00 +30°C° 0.3 mm 5 mps 744 mmHg 81%
    03:00 +29°C° 0.2 mm 5 mps 744 mmHg 82%
    04:00 +29°C° 0.2 mm 5 mps 744 mmHg 82%
    05:00 +29°C° 0.2 mm 5 mps 744 mmHg 83%
    06:00 +29°C° 0.3 mm 5 mps 744 mmHg 82%
    07:00 +30°C° 0.3 mm 5 mps 745 mmHg 80%
    08:00 +30°C° 0.3 mm 6 mps 745 mmHg 79%
    09:00 +32°C° 0.3 mm 6 mps 745 mmHg 75%
    10:00 +32°C° 0.3 mm 6 mps 745 mmHg 72%
    11:00 +33°C° 0.3 mm 5 mps 745 mmHg 68%
    12:00 +33°C° 0.5 mm 5 mps 745 mmHg 66%
    13:00 +34°C° 0.5 mm 5 mps 745 mmHg 64%
    14:00 +34°C° 0.5 mm 5 mps 744 mmHg 61%
    15:00 +34°C° 0.5 mm 5 mps 744 mmHg 62%
    16:00 +34°C° 0.5 mm 5 mps 744 mmHg 63%
    17:00 +34°C° 0.5 mm 5 mps 744 mmHg 64%
    18:00 +33°C° 1.9 mm 5 mps 744 mmHg 68%
    19:00 +33°C° 1.9 mm 4 mps 744 mmHg 73%
    20:00 +32°C° 1.9 mm 4 mps 744 mmHg 77%
    21:00 +32°C° 1.3 mm 4 mps 745 mmHg 77%
    22:00 +30°C° 1.3 mm 5 mps 745 mmHg 77%
    23:00 +30°C° 1.3 mm 5 mps 745 mmHg 77%

    Day after tomorrow, 21 July, Saturday

    Time Temperature Precipitation Wind Pressure Humidity
    00:00 +30°C° 0.5 mm 5 mps 745 mmHg 78%
    01:00 +30°C° 0.5 mm 5 mps 745 mmHg 79%
    02:00 +29°C° 0.5 mm 5 mps 744 mmHg 80%
    03:00 +29°C° 0.4 mm 5 mps 744 mmHg 80%
    04:00 +29°C° 0.4 mm 5 mps 744 mmHg 80%
    05:00 +29°C° 0.4 mm 5 mps 744 mmHg 80%
    06:00 +29°C° 0.1 mm 6 mps 745 mmHg 79%
    07:00 +29°C° 0.1 mm 6 mps 745 mmHg 77%
    08:00 +30°C° 0.1 mm 6 mps 746 mmHg 75%
    09:00 +32°C° 0.1 mm 6 mps 746 mmHg 71%
    10:00 +33°C° 0.1 mm 6 mps 746 mmHg 66%
    11:00 +34°C° 0.1 mm 6 mps 747 mmHg 61%
    12:00 +35°C° 0.3 mm 7 mps 746 mmHg 60%
    13:00 +35°C° 0.3 mm 7 mps 746 mmHg 58%
    14:00 +35°C° 0.3 mm 8 mps 745 mmHg 56%
    15:00 +35°C° 0.2 mm 7 mps 745 mmHg 57%
    16:00 +35°C° 0.2 mm 7 mps 745 mmHg 59%
    17:00 +34°C° 0.2 mm 7 mps 745 mmHg 60%
    18:00 +33°C° 0 mm 7 mps 745 mmHg 63%
    19:00 +33°C° 0 mm 6 mps 746 mmHg 66%
    20:00 +32°C° 0 mm 6 mps 746 mmHg 69%
    21:00 +30°C° 0 mm 6 mps 746 mmHg 71%
    22:00 +30°C° 0 mm 6 mps 747 mmHg 73%
    23:00 +30°C° 0 mm 6 mps 747 mmHg 74%

    22 July, Sunday

    Time Temperature Precipitation Wind Pressure Humidity
    00:00 +30°C° 0.1 mm 6 mps 746 mmHg 75%
    01:00 +29°C° 0.1 mm 6 mps 746 mmHg 76%
    02:00 +29°C° 0.1 mm 6 mps 746 mmHg 78%
    03:00 +29°C° 0.1 mm 6 mps 745 mmHg 78%
    04:00 +29°C° 0.1 mm 6 mps 745 mmHg 78%
    05:00 +29°C° 0.1 mm 5 mps 745 mmHg 78%
    06:00 +29°C° 0.1 mm 6 mps 746 mmHg 76%
    07:00 +30°C° 0.1 mm 6 mps 746 mmHg 73%
    08:00 +30°C° 0.1 mm 6 mps 746 mmHg 71%
    09:00 +32°C° 0.1 mm 6 mps 746 mmHg 69%
    10:00 +32°C° 0.1 mm 6 mps 746 mmHg 66%
    11:00 +33°C° 0.1 mm 6 mps 747 mmHg 63%
    12:00 +33°C° 0.1 mm 6 mps 746 mmHg 62%
    13:00 +34°C° 0.1 mm 6 mps 745 mmHg 61%
    14:00 +34°C° 0.1 mm 6 mps 745 mmHg 60%
    15:00 +34°C° 0.1 mm 6 mps 745 mmHg 62%
    16:00 +33°C° 0.1 mm 6 mps 745 mmHg 63%
    17:00 +33°C° 0.1 mm 6 mps 744 mmHg 65%
    18:00 +32°C° 0.1 mm 6 mps 745 mmHg 68%
    19:00 +32°C° 0.1 mm 6 mps 745 mmHg 71%
    20:00 +30°C° 0.1 mm 5 mps 745 mmHg 73%
    21:00 +30°C° 0.2 mm 5 mps 746 mmHg 74%
    22:00 +30°C° 0.2 mm 5 mps 746 mmHg 75%
    23:00 +30°C° 0.2 mm 5 mps 746 mmHg 76%

    23 July, Monday

    Time Temperature Precipitation Wind Pressure Humidity
    00:00 +29°C° 0.1 mm 5 mps 745 mmHg 76%
    01:00 +29°C° 0.1 mm 5 mps 745 mmHg 77%
    02:00 +29°C° 0.1 mm 5 mps 744 mmHg 77%
    03:00 +29°C° 0.1 mm 5 mps 744 mmHg 78%
    04:00 +29°C° 0.1 mm 4 mps 744 mmHg 78%
    05:00 +29°C° 0.1 mm 4 mps 744 mmHg 78%
    06:00 +29°C° 0 mm 4 mps 744 mmHg 77%
    07:00 +29°C° 0 mm 5 mps 745 mmHg 76%
    08:00 +29°C° 0 mm 5 mps 745 mmHg 75%
    09:00 +30°C° 0.1 mm 5 mps 745 mmHg 73%
    10:00 +30°C° 0.1 mm 5 mps 745 mmHg 71%
    11:00 +32°C° 0.1 mm 5 mps 745 mmHg 68%
    12:00 +32°C° 0.1 mm 5 mps 745 mmHg 68%
    13:00 +32°C° 0.1 mm 5 mps 745 mmHg 68%
    14:00 +32°C° 0.1 mm 6 mps 744 mmHg 67%
    15:00 +32°C° 0.1 mm 6 mps 744 mmHg 67%
    16:00 +32°C° 0.1 mm 6 mps 744 mmHg 66%
    17:00 +33°C° 0.1 mm 6 mps 744 mmHg 66%
    18:00 +32°C° 0.1 mm 6 mps 744 mmHg 68%
    19:00 +32°C° 0.1 mm 5 mps 745 mmHg 71%
    20:00 +30°C° 0.1 mm 5 mps 745 mmHg 73%
    21:00 +30°C° 0.1 mm 5 mps 745 mmHg 74%
    22:00 +30°C° 0.1 mm 5 mps 746 mmHg 75%
    23:00 +29°C° 0.1 mm 5 mps 746 mmHg 76%

    24 July, Tuesday

    Time Temperature Precipitation Wind Pressure Humidity
    00:00 +29°C° 0.1 mm 5 mps 745 mmHg 77%
    01:00 +29°C° 0.1 mm 5 mps 745 mmHg 78%
    02:00 +29°C° 0.1 mm 5 mps 745 mmHg 78%
    03:00 +29°C° 0.2 mm 5 mps 745 mmHg 79%
    04:00 +29°C° 0.2 mm 4 mps 745 mmHg 79%
    05:00 +28°C° 0.2 mm 4 mps 745 mmHg 80%
    06:00 +29°C° 0.2 mm 5 mps 745 mmHg 78%
    07:00 +29°C° 0.2 mm 5 mps 746 mmHg 76%
    08:00 +30°C° 0.2 mm 6 mps 746 mmHg 74%
    09:00 +32°C° 0.3 mm 6 mps 746 mmHg 71%
    10:00 +32°C° 0.3 mm 6 mps 747 mmHg 67%
    11:00 +33°C° 0.3 mm 7 mps 747 mmHg 64%
    12:00 +34°C° 0.8 mm 7 mps 746 mmHg 62%
    13:00 +34°C° 0.8 mm 7 mps 746 mmHg 61%
    14:00 +34°C° 0.8 mm 7 mps 745 mmHg 60%
    15:00 +34°C° 0.7 mm 7 mps 745 mmHg 61%
    16:00 +34°C° 0.7 mm 7 mps 745 mmHg 61%
    17:00 +34°C° 0.7 mm 7 mps 745 mmHg 62%
    18:00 +33°C° 0.3 mm 6 mps 746 mmHg 64%
    19:00 +32°C° 0.3 mm 6 mps 746 mmHg 67%
    20:00 +32°C° 0.3 mm 5 mps 747 mmHg 70%
    21:00 +30°C° 0.1 mm 5 mps 747 mmHg 71%
    22:00 +30°C° 0.1 mm 5 mps 747 mmHg 73%
    23:00 +30°C° 0.1 mm 5 mps 747 mmHg 74%
    Show more